Location: Austin
(30.3000°N, 97.7500°W)
Time: 23:55:52
(UTC-06:00)

Landsat 7 - Pass Details

Date: 04 November 2025
Orbit: 680 x 682 km, 97.9° (Epoch: 15 November)

Event Time Altitude Azimuth Distance (km) Brightness Sun altitude
Rises 18:32:54 0° 175° (S) 3,026 7.2 -11.7°
Reaches altitude 10° 18:35:09 10° 178° (S) 2,114 6.4 -12.2°
Maximum altitude 18:39:43 63° 259° (W) 761 4.3 -13.1°
Drops below altitude 10° 18:44:19 10° 341° (NNW) 2,124 6.4 -14.1°
Sets 18:46:36 0° 344° (NNW) 3,042 7.2 -14.6°
